Hyannis, MA

1:53 AM EDT on September 22, 2017 (GMT -0400)
Barnstable Municipal-Boardman-Polando Field

Weather History for KHYA - September, 2012

Change the Weather History Date:

Wednesday, September 26, 2012

  Actual Average Record
Temperature  
Mean Temperature 68 °F -  
Max Temperature 73 °F 68 °F 81 °F (1958)
Min Temperature 64 °F 48 °F 37 °F (1959)
Cooling Degree Days 3    
Growing Degree Days 18 (Base 50)    
Moisture  
Dew Point 61 °F    
Average Humidity 79    
Maximum Humidity 94    
Minimum Humidity 68    
Precipitation  
Precipitation 0.00 in - - ()
Sea Level Pressure  
Sea Level Pressure 30.09 in    
Wind  
Wind Speed 12 mph (SSW)    
Max Wind Speed 22 mph    
Max Gust Speed 29 mph    
Visibility 10 miles    
Events Rain    
Averages and records for this station are not official NWS values.
T = Trace of Precipitation, MM = Missing Value Source: NWS Daily Summary

Daily Weather History Graph

Daily Weather History Graph

Search for Another Location

Airport or City:

Trip Planner

Search our weather history database for the weather conditions in past years. The results will help you decide how hot, cold, wet, or windy it might be!

Date:

Astronomy

Sep. 26, 2012 Rise Set
Actual Time 6:33 AM EDT 6:30 PM EDT
Civil Twilight 6:05 AM EDT 6:58 PM EDT
Nautical Twilight 5:33 AM EDT 7:30 PM EDT
Astronomical Twilight 5:00 AM EDT 8:03 PM EDT
Moon 4:30 PM EDT (9/26) 2:53 AM EDT (9/26)
Length of Visible Light 12h 52m
Length of Day
11h 57m
Waxing Gibbous, 88% of the Moon is Illuminated
Sep 26
Waxing Gibbous
Sep 29
Full
Oct 8
Last Quarter
Oct 15
New
Oct 21
First Quarter

Hourly Weather History & Observations

Time (EDT) Temp. Dew Point Humidity Pressure Visibility Wind Dir Wind Speed Gust Speed Precip Events Conditions
12:56 AM 64.9 °F 54.0 °F 68% 30.17 in 10.0 mi SSW 11.5 mph - N/A   Clear
1:56 AM 64.0 °F 55.0 °F 73% 30.17 in 10.0 mi SSW 11.5 mph 18.4 mph N/A   Clear
2:56 AM 64.0 °F 55.0 °F 73% 30.15 in 10.0 mi SW 12.7 mph - N/A   Partly Cloudy
3:56 AM 64.9 °F 55.9 °F 73% 30.14 in 10.0 mi SSW 12.7 mph - N/A   Clear
4:56 AM 64.9 °F 55.9 °F 73% 30.15 in 10.0 mi SSW 10.4 mph - N/A   Clear
5:56 AM 64.9 °F 57.0 °F 75% 30.15 in 10.0 mi SSW 10.4 mph - N/A   Clear
6:56 AM 64.9 °F 57.9 °F 78% 30.15 in 10.0 mi SSW 6.9 mph - N/A   Clear
7:56 AM 66.2 °F 59.0 °F 78% 30.14 in 10.0 mi SSW 8.1 mph - N/A   Scattered Clouds
8:56 AM 68.0 °F 61.0 °F 78% 30.14 in 10.0 mi SSW 11.5 mph - N/A   Partly Cloudy
9:56 AM 70.0 °F 60.1 °F 71% 30.14 in 10.0 mi SSW 17.3 mph 23.0 mph N/A   Clear
10:56 AM 71.1 °F 61.0 °F 70% 30.12 in 10.0 mi SSW 13.8 mph 23.0 mph N/A   Clear
11:56 AM 71.1 °F 62.1 °F 73% 30.12 in 10.0 mi SSW 16.1 mph 27.6 mph N/A   Clear
12:56 PM 71.6 °F 62.6 °F 73% 30.10 in 10.0 mi SSW 15.0 mph 25.3 mph N/A   Scattered Clouds
1:56 PM 72.0 °F 62.1 °F 71% 30.09 in 10.0 mi SSW 17.3 mph 28.8 mph N/A   Partly Cloudy
2:56 PM 71.1 °F 62.1 °F 73% 30.07 in 9.0 mi SSW 15.0 mph 27.6 mph N/A   Overcast
3:56 PM 70.0 °F 62.1 °F 76% 30.06 in 10.0 mi SSW 17.3 mph 24.2 mph N/A   Overcast
4:56 PM 69.1 °F 62.1 °F 78% 30.05 in 10.0 mi SSW 12.7 mph - N/A   Mostly Cloudy
5:56 PM 69.1 °F 63.0 °F 81% 30.04 in 10.0 mi SSW 12.7 mph - N/A   Overcast
6:56 PM 69.1 °F 63.0 °F 81% 30.05 in 10.0 mi SSW 21.9 mph 27.6 mph N/A   Mostly Cloudy
7:56 PM 68.0 °F 63.0 °F 84% 30.06 in 10.0 mi SSW 11.5 mph 23.0 mph N/A   Mostly Cloudy
8:38 PM 68.0 °F 64.4 °F 88% 30.06 in 10.0 mi SSW 9.2 mph - N/A   Overcast
8:56 PM 68.0 °F 64.0 °F 87% 30.06 in 10.0 mi SSW 11.5 mph - N/A   Overcast
9:43 PM 68.0 °F 64.4 °F 88% 30.05 in 10.0 mi SSW 12.7 mph 17.3 mph N/A   Overcast
9:56 PM 68.0 °F 64.0 °F 87% 30.06 in 10.0 mi SW 9.2 mph 18.4 mph N/A   Overcast
10:30 PM 68.0 °F 64.4 °F 88% 30.04 in 10.0 mi SW 15.0 mph - N/A   Overcast
10:56 PM 66.9 °F 64.9 °F 93% 30.04 in 9.0 mi SW 12.7 mph - 0.00 in Rain Light Rain
11:48 PM 66.2 °F 64.4 °F 94% 30.03 in 10.0 mi SW 13.8 mph - 0.00 in   Overcast
11:56 PM 66.9 °F 64.9 °F 93% 30.03 in 10.0 mi SW 10.4 mph - 0.00 in   Overcast